Overview Statistics Trail Chart Weather Telemetry Raw packets
 

This is the latest recevied weather packets stored in our database for station/object KB7STN. If no packets are shown the sender has not sent any weather packets the latest 10 day(s).

<< 78 79 80 81 82 83 84 >>
Time Temp. Humidity Pressure Rain* Wind** Luminosity Snow
1788133595 23.89° C 46% 1020.5 hPa 0 mm - - -
1788133295 24.44° C 46% 1020.5 hPa 0 mm - - -
1788132995 24.44° C 45% 1020.5 hPa 0 mm - - -
1788132695 24.44° C 45% 1020.7 hPa 0 mm - - -
1788132395 24.44° C 47% 1020.7 hPa 0 mm - - -
1788132095 24.44° C 48% 1020.7 hPa 0 mm - - -
1788131795 24.44° C 50% 1020.7 hPa 0 mm - - -
1788131495 24.44° C 47% 1020.7 hPa 0 mm - - -
1788131195 24.44° C 51% 1020.7 hPa 0 mm - - -
1788130895 24.44° C 51% 1020.8 hPa 0 mm - - -
1788130595 23.89° C 51% 1020.8 hPa 0 mm - - -
1788130295 23.89° C 46% 1021 hPa 0 mm - - -
1788129995 23.89° C 45% 1020.8 hPa 0 mm - - -
1788129695 23.89° C 46% 1020.8 hPa 0 mm - - -
1788129395 23.89° C 44% 1020.9 hPa 0 mm - - -
1788129095 23.89° C 44% 1020.9 hPa 0 mm - - -
1788128795 23.89° C 43% 1020.9 hPa 0 mm - - -
1788128495 23.89° C 43% 1020.9 hPa 0 mm - - -
1788128195 23.89° C 42% 1020.9 hPa 0 mm - - -
1788127895 23.89° C 44% 1020.8 hPa 0 mm - - -
1788127595 23.89° C 44% 1020.7 hPa 0 mm - - -
1788127295 23.89° C 45% 1020.8 hPa 0 mm - - -
1788126995 23.89° C 46% 1021 hPa 0 mm - - -
1788126695 23.89° C 46% 1020.9 hPa 0 mm - - -
1788126395 24.44° C 46% 1020.8 hPa 0 mm - - -

* Rain latest hour (hover to see other rain measurements)
** Current wind speed in m/s (hover to see current wind gust speed)